Ypsilanti, MI

10:07 AM EST on December 16, 2017 (GMT -0500)
Willow Run

Weather History for KYIP - November, 2011

Change the Weather History Date:

Monday, November 7, 2011

  Actual Average Record
Temperature  
Mean Temperature 58 °F -  
Max Temperature 62 °F 49 °F 70 °F (1975)
Min Temperature 53 °F 35 °F 21 °F (1971)
Degree Days  
Heating Degree Days 8    
Growing Degree Days 8 (Base 50)    
Moisture  
Dew Point 48 °F    
Average Humidity 74    
Maximum Humidity 88    
Minimum Humidity 53    
Precipitation  
Precipitation 0.05 in - - ()
Sea Level Pressure  
Sea Level Pressure 30.22 in    
Wind  
Wind Speed 8 mph (SW)    
Max Wind Speed 14 mph    
Max Gust Speed -    
Visibility 7 miles    
Events Rain    
Averages and records for this station are not official NWS values.
T = Trace of Precipitation, MM = Missing Value Source: NWS Daily Summary

Daily Weather History Graph

Daily Weather History Graph

Search for Another Location

Airport or City:

Trip Planner

Search our weather history database for the weather conditions in past years. The results will help you decide how hot, cold, wet, or windy it might be!

Date:

Astronomy

Nov. 07, 2011 Rise Set
Actual Time 7:14 AM EST 5:20 PM EST
Civil Twilight 6:44 AM EST 5:50 PM EST
Nautical Twilight 6:11 AM EST 6:23 PM EST
Astronomical Twilight 5:38 AM EST 6:56 PM EST
Moon 3:33 PM EST (11/7) 4:13 AM EST (11/7)
Length of Visible Light 11h 05m
Length of Day
10h 06m
Waxing Gibbous, 91% of the Moon is Illuminated
Nov 7
Waxing Gibbous
Nov 10
Full
Nov 18
Last Quarter
Nov 25
New
Dec 2
First Quarter

Hourly Weather History & Observations

Time (EST) Temp. Dew Point Humidity Pressure Visibility Wind Dir Wind Speed Gust Speed Precip Events Conditions
12:53 AM 55.9 °F 39.0 °F 53% 30.17 in 10.0 mi SSW 13.8 mph - N/A   Overcast
1:53 AM 55.9 °F 39.9 °F 55% 30.18 in 10.0 mi SSW 10.4 mph - N/A   Overcast
2:53 AM 55.9 °F 39.9 °F 55% 30.19 in 10.0 mi SW 10.4 mph - N/A   Overcast
3:53 AM 55.9 °F 41.0 °F 57% 30.18 in 10.0 mi SW 10.4 mph - N/A   Overcast
4:53 AM 55.0 °F 41.0 °F 59% 30.19 in 10.0 mi SW 8.1 mph - N/A   Overcast
5:53 AM 54.0 °F 41.0 °F 62% 30.20 in 10.0 mi SSW 9.2 mph - N/A   Overcast
6:53 AM 53.6 °F 41.0 °F 62% 30.21 in 10.0 mi SSW 9.2 mph - N/A   Overcast
7:53 AM 55.0 °F 41.0 °F 59% 30.23 in 10.0 mi SSW 8.1 mph - N/A   Overcast
8:53 AM 55.9 °F 43.0 °F 62% 30.24 in 10.0 mi SW 9.2 mph - 0.00 in Rain Light Rain
9:53 AM 55.4 °F 46.4 °F 72% 30.25 in 10.0 mi SW 12.7 mph - N/A Rain Light Rain
10:53 AM 55.9 °F 46.9 °F 72% 30.25 in 10.0 mi SSW 13.8 mph - 0.00 in   Overcast
11:53 AM 57.2 °F 48.2 °F 72% 30.25 in 10.0 mi SW 10.4 mph - N/A   Overcast
12:53 PM 60.1 °F 48.9 °F 67% 30.22 in 10.0 mi SW 9.2 mph - N/A   Overcast
1:50 PM 62.6 °F 48.2 °F 59% 30.22 in 10.0 mi SW 4.6 mph - N/A   Overcast
1:53 PM 62.1 °F 48.9 °F 62% 30.21 in 10.0 mi SW 5.8 mph - N/A   Overcast
2:38 PM 60.8 °F 48.2 °F 63% 30.21 in 10.0 mi SW 8.1 mph - N/A   Overcast
2:53 PM 61.0 °F 50.0 °F 67% 30.20 in 10.0 mi SW 5.8 mph - N/A   Overcast
3:53 PM 60.8 °F 50.0 °F 68% 30.22 in 10.0 mi SSW 9.2 mph - N/A   Overcast
4:04 PM 60.8 °F 50.0 °F 68% 30.21 in 10.0 mi SSW 10.4 mph - N/A   Overcast
4:53 PM 59.0 °F 50.0 °F 72% 30.21 in 10.0 mi SSW 6.9 mph - N/A   Overcast
5:53 PM 57.0 °F 50.0 °F 77% 30.21 in 9.0 mi SSW 9.2 mph - N/A   Overcast
6:53 PM 55.9 °F 51.1 °F 84% 30.22 in 7.0 mi SSW 6.9 mph - 0.00 in Rain Light Rain
7:28 PM 55.4 °F 51.8 °F 88% 30.22 in 5.0 mi SSW 5.8 mph - 0.00 in Rain Light Rain
7:43 PM 55.4 °F 51.8 °F 88% 30.23 in 5.0 mi SSW 4.6 mph - 0.00 in   Overcast
7:53 PM 55.9 °F 51.1 °F 84% 30.23 in 5.0 mi SW 4.6 mph - 0.00 in   Haze
8:22 PM 55.4 °F 51.8 °F 88% 30.23 in 4.0 mi WSW 3.5 mph - 0.00 in   Haze
8:53 PM 55.4 °F 51.8 °F 88% 30.24 in 4.0 mi SW 3.5 mph - N/A Rain Light Rain
9:23 PM 55.4 °F 51.8 °F 88% 30.24 in 3.0 mi SSW 5.8 mph - 0.01 in Rain Light Rain
9:31 PM 55.4 °F 51.8 °F 88% 30.24 in 2.5 mi SW 5.8 mph - 0.01 in Rain Light Rain
9:53 PM 55.0 °F 51.1 °F 86% 30.24 in 2.5 mi SW 3.5 mph - 0.02 in Rain Light Rain
10:15 PM 55.4 °F 51.8 °F 88% 30.24 in 2.0 mi SW 3.5 mph - 0.00 in Rain Light Rain
10:43 PM 55.4 °F 51.8 °F 88% 30.24 in 2.0 mi Calm Calm - 0.00 in   Overcast
10:53 PM 55.0 °F 51.1 °F 86% 30.23 in 1.8 mi South 3.5 mph - 0.00 in   Overcast
11:01 PM 55.4 °F 51.8 °F 88% 30.23 in 1.8 mi SSW 3.5 mph - N/A   Overcast
11:23 PM 55.4 °F 51.8 °F 88% 30.23 in 1.2 mi SW 3.5 mph - 0.01 in Rain Light Rain
11:51 PM 55.4 °F 51.8 °F 88% 30.23 in 0.8 mi Calm Calm - 0.03 in Rain Light Rain
11:53 PM 55.0 °F 51.1 °F 86% 30.23 in 0.8 mi Calm Calm - 0.03 in Rain Light Rain
11:57 PM 55.4 °F 51.8 °F 88% 30.23 in 1.0 mi Calm Calm - 0.00 in Rain Light Rain